[[{"header":{"parameterUnit":"m.s-1","parameterCategory":2,"la1":30.2991,"la2":30.254,"lo1":-89.0895,"lo2":-89.0444,"dy":0.0017,"dx":0.0017,"nx":28,"ny":28,"refTime":"2025-07-09T09:00:00:Z","depth":"0","parameterNumber":2,"parameterNumberName":"U-component_of_CURRENTS"},"data":[0,0,0,0,0,0,0,0,0,0,0,0,0,0,0,0,0,0,0,0,0,0,0,0,0,0,0,0,0,0,0,0,0,0,0,0,0,0,0,0,0,0,0,0,0,0,0,0,0,0,0,0,0,0,0,0,0,0,0.4259,0.426,0,0.4338,0.4339,0.434,0.4331,0.4329,0.4328,0.4327,0.4353,0.4355,0.4356,0,0,0,0,0,0,0,0,0,0,0,0,0,0.4104,0.4107,0.4259,0.426,0.4261,0.4338,0.4339,0.434,0.4331,0.4329,0.4328,0.4327,0.4353,0.4355,0.4357,0,0,0,0,0,0,0,0,0,0,0,0,0,0.4175,0.4108,0.4259,0.4267,0.4269,0.4338,0.4339,0.434,0.4331,0.4329,0.4328,0.4326,0.4352,0.4354,0.4357,0.4407,0,0,0.4365,0.4366,0,0,0,0,0,0,0,0,0.4171,0.418,0.4265,0.4267,0.4269,0.4324,0.4294,0.436,0.4331,0.4306,0.4327,0.4325,0.4341,0.4344,0.4361,0.4408,0.4409,0.4365,0.4367,0.4368,0.4369,0,0,0,0,0,0,0,0.4166,0.4177,0.4289,0.4266,0.4269,0.4268,0.4276,0.4307,0.433,0.4308,0.4308,0.432,0.4341,0.4359,0.4362,0.4409,0.4365,0.4367,0.4369,0.437,0.4599,0.4603,0,0,0,0,0,0,0.4162,0.4173,0.4286,0.4291,0.4216,0.4273,0.4281,0.4307,0.433,0.4333,0.4321,0.4319,0.4355,0.4359,0.4363,0.4541,0.4368,0.437,0.4372,0.4594,0.46,0.4605,0,0,0,0,0,0,0.4158,0.4172,0.4283,0.4234,0.4248,0.4277,0.4306,0.4309,0.4331,0.4341,0.4342,0.4339,0.4354,0.4359,0.4416,0.4537,0.4371,0.4374,0.4589,0.4596,0.4602,0.4822,0,0,0,0,0,0,0.4154,0.417,0.419,0.4234,0.4251,0.4362,0.4308,0.4312,0.4341,0.4339,0.4358,0.4358,0.4353,0.4412,0.4418,0.4537,0.4376,0.4583,0.4592,0.46,0.4809,0.4835,0.4858,0,0,0,0,0,0.4148,0.4201,0.4191,0.4205,0.4277,0.4366,0.4376,0.4387,0.4344,0.4391,0.4389,0.4357,0.4471,0.4417,0.4423,0.4547,0.4579,0.459,0.46,0.4798,0.483,0.4857,0,0,0,0,0,0,0.4144,0.4206,0.4196,0.4263,0.432,0.4365,0.4416,0.4397,0.4432,0.4432,0.44,0.4405,0.4515,0.4487,0.4428,0.4637,0.4527,0.4539,0.4676,0.4706,0.473,0.4715,0.4378,0,0,0,0,0,0.4151,0.4207,0.426,0.4314,0.4355,0.4378,0.4409,0.4425,0.4458,0.447,0.4468,0.4492,0.4565,0.4592,0.4639,0.4734,0.4716,0.4821,0.4846,0.4867,0.486,0.4955,0.4987,0.4638,0.4638,0.4638,0,0,0.416,0.4203,0.4231,0.4317,0.4363,0.4475,0.4395,0.448,0.4555,0.447,0.456,0.4578,0.4608,0.4738,0.4784,0.4726,0.4962,0.488,0.4898,0.4878,0.4969,0.5003,0.5033,0.4645,0.4644,0.4643,0,0,0.4242,0.4259,0.4349,0.4424,0.4516,0.4548,0.4574,0.4633,0.4644,0.4734,0.4712,0.4777,0.4857,0.4912,0.4951,0.5128,0.5092,0.5162,0.5275,0.5371,0.54,0.5425,0.5462,0.5489,0.5171,0.5172,0.5172,0,0.4253,0.4371,0.4389,0.452,0.4583,0.4591,0.4711,0.476,0.4815,0.4831,0.4797,0.4952,0.4952,0.5132,0.5187,0.5188,0.5209,0.5165,0.5403,0.5428,0.545,0.5481,0.5508,0.5184,0.5182,0.5181,0.518,0,0.4409,0.4524,0.4599,0.4756,0.4823,0.494,0.5005,0.5058,0.5054,0.5082,0.5217,0.5242,0.5318,0.5365,0.5324,0.551,0.5465,0.5429,0.5327,0.5498,0.552,0.5544,0.52,0.5196,0.5193,0.519,0,0,0.4374,0.4654,0.4674,0.478,0.4954,0.5015,0.5162,0.5266,0.5312,0.5413,0.5493,0.5635,0.5608,0.5646,0.5642,0.5712,0.5871,0.5633,0.5633,0.5665,0.606,0.5839,0.5842,0.5892,0.5897,0.5901,0.6018,0,0.4489,0.4761,0.4848,0.5074,0.5222,0.5275,0.538,0.5467,0.5506,0.5586,0.5672,0.5759,0.5739,0.5765,0.5861,0.5845,0.5942,0.5839,0.589,0.589,0.567,0.5865,0.5539,0.56,0.604,0.6044,0.6047,0,0.4592,0.477,0.5013,0.5224,0.5274,0.5375,0.5479,0.5583,0.5711,0.5731,0.5876,0.5912,0.6063,0.599,0.6159,0.6099,0.6102,0.6098,0.6103,0.5825,0.5713,0.5497,0.5625,0.5535,0.6082,0.6079,0.6077,0,0.4534,0.4851,0.5027,0.5121,0.5372,0.5416,0.5503,0.5613,0.5654,0.5819,0.5859,0.607,0.6122,0.6243,0.6245,0.6215,0.6381,0.6336,0.6172,0.6155,0.5842,0.5787,0.5872,0.6482,0.6482,0.6482,0.6481,0,0.4607,0.4749,0.501,0.5113,0.5236,0.5396,0.5469,0.5563,0.5687,0.5745,0.5921,0.6001,0.6181,0.6289,0.6323,0.6312,0.6469,0.6217,0.6191,0.5908,0.586,0.5729,0.5703,0.6486,0.6485,0.6484,0.6483,0,0.4545,0.4734,0.4942,0.5185,0.5224,0.5302,0.5418,0.5473,0.56,0.5689,0.5751,0.5956,0.6053,0.6207,0.6338,0.6336,0.62,0.6344,0.5965,0.5889,0.5573,0.5568,0.5395,0.5249,0.6176,0.6172,0.6168,0,0.4578,0.4685,0.4918,0.4974,0.5075,0.519,0.5237,0.5394,0.5451,0.5638,0.5681,0.5822,0.5876,0.6015,0.601,0.6063,0.5989,0.5816,0.5688,0.5534,0.5516,0.5366,0.5249,0.5385,0.5375,0.5367,0.536,0,0.4612,0.4655,0.4791,0.4899,0.4964,0.5041,0.5135,0.5164,0.5341,0.5377,0.5462,0.5526,0.5618,0.5504,0.5563,0.5568,0.5512,0.5643,0.5618,0.501,0.4723,0.4572,0.5316,0.5288,0.5295,0.5301,0.5305,0.5307,0.4581,0.4629,0.4743,0.4808,0.4863,0.4874,0.4831,0.4924,0.4938,0.4923,0.514,0.5059,0.5116,0.5091,0.5078,0.4865,0.4944,0.4744,0.4789,0.4683,0.4411,0.4955,0.4803,0.4807,0.4811,0.4814,0.4817,0,0.4542,0.4571,0.4639,0.468,0.4622,0.4704,0.4724,0.4612,0.4508,0.455,0.4514,0.4437,0.4324,0.4365,0.426,0.4115,0.3965,0.4031,0.3807,0.3766,0.4369,0.4202,0.3747,0.3748,0.3748,0.3748,0.3748,0.3748,0.453,0.4525,0.4528,0.4417,0.4397,0.4229,0.417,0.4023,0.3975,0.3746,0.3619,0.3674,0.3927,0.3945,0.377,0.3661,0.3484,0.3228,0.3377,0.3872,0.3944,0.4012,0.3854,0.3333,0.3333,0.2549,0.2543,0.2539]},{"header":{"parameterUnit":"m.s-1","parameterCategory":2,"la1":30.2991,"la2":30.254,"lo1":-89.0895,"lo2":-89.0444,"dy":0.0017,"dx":0.0017,"nx":28,"ny":28,"refTime":"2025-07-09T09:00:00:Z","depth":"0","parameterNumber":3,"parameterNumberName":"V-component_of_CURRENTS"},"data":[0,0,0,0,0,0,0,0,0,0,0,0,0,0,0,0,0,0,0,0,0,0,0,0,0,0,0,0,0,0,0,0,0,0,0,0,0,0,0,0,0,0,0,0,0,0,0,0,0,0,0,0,0,0,0,0,0,0,0.0121,0.012,0,0.011,0.011,0.011,0.0081,0.008,0.0079,0.0079,0.0066,0.0066,0.0066,0,0,0,0,0,0,0,0,0,0,0,0,0,0.01,0.01,0.0121,0.012,0.012,0.011,0.011,0.011,0.0081,0.008,0.0079,0.0078,0.0066,0.0066,0.0066,0,0,0,0,0,0,0,0,0,0,0,0,0,0.0101,0.0101,0.0121,0.0104,0.0103,0.011,0.011,0.011,0.0081,0.008,0.0079,0.0078,0.0066,0.0066,0.0066,0.0088,0,0,0.0068,0.0068,0,0,0,0,0,0,0,0,0.0101,0.0102,0.0107,0.0106,0.0104,0.0096,0.0098,0.0103,0.0081,0.0089,0.0079,0.0078,0.0076,0.0076,0.0076,0.0088,0.0087,0.0068,0.0068,0.0068,0.0068,0,0,0,0,0,0,0,0.0101,0.0102,0.0117,0.0107,0.0105,0.0093,0.0092,0.0099,0.0088,0.0089,0.0086,0.0085,0.0075,0.0076,0.0076,0.0087,0.0068,0.0068,0.0068,0.0068,0.015,0.0152,0,0,0,0,0,0,0.0104,0.0103,0.0117,0.0116,0.01,0.0094,0.0093,0.0099,0.0088,0.0086,0.0086,0.0084,0.0076,0.0075,0.0075,0.0147,0.0068,0.0068,0.0069,0.0148,0.015,0.0152,0,0,0,0,0,0,0.0104,0.0106,0.0117,0.0108,0.0109,0.0095,0.0103,0.01,0.0102,0.0087,0.0084,0.0092,0.0075,0.0074,0.0089,0.0144,0.0069,0.0069,0.0146,0.0149,0.0151,0.026,0,0,0,0,0,0,0.0104,0.0106,0.0113,0.0109,0.011,0.0135,0.0103,0.01,0.0103,0.01,0.0091,0.0088,0.0074,0.0088,0.0089,0.0143,0.0069,0.0143,0.0147,0.015,0.0254,0.0266,0.0277,0,0,0,0,0,0.0103,0.0128,0.0114,0.0116,0.012,0.0136,0.0136,0.0122,0.0104,0.0118,0.0107,0.0089,0.0112,0.009,0.0091,0.0146,0.0142,0.0146,0.015,0.0249,0.0264,0.0277,0,0,0,0,0,0,0.0123,0.0127,0.0112,0.0135,0.0137,0.0131,0.0146,0.013,0.0132,0.0128,0.0106,0.0104,0.0138,0.0125,0.01,0.018,0.0128,0.0132,0.0203,0.0217,0.0228,0.0253,0.007,0,0,0,0,0,0.013,0.0148,0.0144,0.0162,0.0168,0.0156,0.0159,0.0149,0.0148,0.0147,0.0144,0.0144,0.0158,0.017,0.0173,0.0217,0.019,0.0254,0.0266,0.0275,0.0297,0.0302,0.0316,0.0167,0.0167,0.0167,0,0,0.0141,0.0145,0.0154,0.0167,0.0168,0.021,0.0157,0.0172,0.0211,0.0148,0.0201,0.0178,0.0175,0.0221,0.0238,0.0218,0.03,0.0281,0.0289,0.0306,0.0308,0.0323,0.0335,0.017,0.0169,0.0169,0,0,0.0188,0.018,0.0217,0.023,0.0238,0.0244,0.0252,0.0255,0.026,0.0296,0.0265,0.0277,0.0298,0.0314,0.0323,0.0401,0.0352,0.0399,0.0491,0.0496,0.0508,0.0519,0.0486,0.0493,0.0415,0.0416,0.0416,0,0.0201,0.0252,0.0229,0.0275,0.0311,0.027,0.0336,0.0339,0.0346,0.0368,0.0329,0.0375,0.0355,0.0432,0.0448,0.0432,0.0403,0.0439,0.0511,0.0521,0.053,0.0494,0.05,0.0421,0.0421,0.042,0.042,0,0.0286,0.0326,0.0355,0.0409,0.044,0.0486,0.0497,0.0516,0.0512,0.0518,0.057,0.0542,0.0575,0.0568,0.0528,0.0598,0.0544,0.0515,0.0477,0.0552,0.0508,0.0513,0.043,0.0428,0.0426,0.0424,0,0,0.0327,0.0403,0.0414,0.0479,0.0521,0.057,0.0626,0.0687,0.0743,0.073,0.0815,0.0809,0.0775,0.0782,0.074,0.0735,0.0748,0.0653,0.065,0.062,0.0728,0.0651,0.0647,0.0725,0.0727,0.0728,0.0664,0,0.0409,0.0536,0.055,0.069,0.077,0.0765,0.0839,0.0875,0.0886,0.0947,0.0917,0.0972,0.0867,0.0886,0.0865,0.0788,0.0768,0.0766,0.0659,0.0656,0.058,0.0654,0.0634,0.0573,0.0667,0.0668,0.0669,0,0.0498,0.0582,0.0728,0.0865,0.09,0.097,0.1089,0.1148,0.1187,0.1191,0.1211,0.1175,0.1185,0.1076,0.0992,0.099,0.0869,0.0788,0.0783,0.0683,0.059,0.0517,0.0576,0.0409,0.0675,0.0674,0.0674,0,0.0576,0.0716,0.0849,0.0894,0.1025,0.1091,0.1165,0.1223,0.1301,0.1351,0.1403,0.138,0.1398,0.1266,0.1077,0.1039,0.0958,0.0891,0.0707,0.0698,0.0649,0.0633,0.054,0.0827,0.0827,0.0827,0.0828,0,0.0676,0.0784,0.0898,0.0977,0.1154,0.1202,0.1366,0.1409,0.1495,0.1621,0.1546,0.1626,0.1443,0.1363,0.1158,0.0955,0.1024,0.0742,0.0695,0.0682,0.0671,0.0494,0.0377,0.0825,0.0825,0.0826,0.0826,0,0.0748,0.0807,0.0983,0.1141,0.1194,0.133,0.1503,0.1611,0.1665,0.1823,0.1854,0.183,0.1723,0.1504,0.1296,0.108,0.0759,0.078,0.0754,0.0705,0.036,0.025,0.0068,-0.0007,0.0578,0.0576,0.0574,0,0.0801,0.0892,0.1103,0.121,0.1287,0.1467,0.1584,0.1688,0.181,0.1955,0.205,0.1995,0.1971,0.1626,0.1243,0.0888,0.0703,0.0623,0.055,0.0359,0.0203,0.0116,0.0062,0.0514,0.0511,0.051,0.0508,0,0.0923,0.0985,0.1127,0.1335,0.1486,0.1666,0.1842,0.1965,0.2103,0.2225,0.2354,0.2346,0.201,0.1644,0.1145,0.0894,0.0485,0.0575,0.041,0.0178,0.0049,-0.005,0.0506,0.0494,0.0495,0.0496,0.0497,0.0498,0.1013,0.1123,0.1286,0.1479,0.1647,0.1838,0.1988,0.2166,0.2369,0.2545,0.255,0.2539,0.2017,0.1332,0.0983,0.0344,0.0339,0.014,0.0029,-0.0033,-0.0122,0.0378,0.0292,0.0292,0.0293,0.0293,0.0293,0,0.1132,0.1233,0.1414,0.1636,0.1802,0.1876,0.2135,0.227,0.25,0.2637,0.272,0.2442,0.1818,0.1202,0.0336,-0.0108,-0.0245,-0.0332,-0.0435,-0.0458,0.0025,0.0008,-0.0181,-0.0181,-0.0181,-0.018,-0.018,-0.018,0.1205,0.1362,0.143,0.1699,0.1846,0.2062,0.2203,0.2398,0.2541,0.2671,0.2647,0.2613,0.2157,0.0643,-0.0314,-0.0522,-0.0798,-0.0922,-0.1022,-0.0682,-0.0645,-0.0609,-0.0649,-0.0973,-0.0974,-0.1433,-0.1438,-0.1442]}],[{"header":{"parameterUnit":"m.s-1","parameterCategory":2,"la1":30.2991,"la2":30.254,"lo1":-89.0895,"lo2":-89.0444,"dy":0.0017,"dx":0.0017,"nx":28,"ny":28,"refTime":"2025-07-09T09:00:00:Z","depth":"2","parameterNumber":2,"parameterNumberName":"U-component_of_CURRENTS"},"data":[0,0,0,0,0,0,0,0,0,0,0,0,0,0,0,0,0,0,0,0,0,0,0,0,0,0,0,0,0,0,0,0,0,0,0,0,0,0,0,0,0,0,0,0,0,0,0,0,0,0,0,0,0,0,0,0,0,0,0.3504,0.3505,0,0.3596,0.3598,0.3599,0.362,0.3619,0.3618,0.3617,0.3674,0.3677,0.3679,0,0,0,0,0,0,0,0,0,0,0,0,0,0.3433,0.3434,0.3504,0.3505,0.3506,0.3596,0.3598,0.3599,0.362,0.3619,0.3618,0.3617,0.3674,0.3676,0.3679,0,0,0,0,0,0,0,0,0,0,0,0,0,0.3491,0.3435,0.3504,0.3525,0.3528,0.3596,0.3598,0.36,0.362,0.3619,0.3617,0.3616,0.3673,0.3676,0.368,0.3728,0,0,0.369,0.3692,0,0,0,0,0,0,0,0,0.3488,0.3494,0.3521,0.3524,0.3527,0.3593,0.3594,0.364,0.362,0.3588,0.3617,0.3615,0.3643,0.3649,0.3674,0.3731,0.3733,0.3691,0.3693,0.3694,0.3695,0,0,0,0,0,0,0,0.3484,0.3491,0.3543,0.3522,0.3525,0.356,0.3566,0.3603,0.3623,0.3591,0.3592,0.3598,0.3644,0.367,0.3675,0.3734,0.3691,0.3694,0.3696,0.3697,0.3913,0.3917,0,0,0,0,0,0,0.3464,0.3486,0.354,0.3546,0.35,0.3562,0.3569,0.3575,0.3624,0.3629,0.3599,0.3599,0.3665,0.3671,0.3677,0.3823,0.3694,0.3698,0.37,0.391,0.3914,0.3918,0,0,0,0,0,0,0.3462,0.3468,0.3537,0.3516,0.3527,0.3563,0.3571,0.3578,0.3619,0.363,0.3635,0.3635,0.3664,0.3672,0.372,0.3822,0.3699,0.3702,0.3905,0.3911,0.3916,0.4061,0,0,0,0,0,0,0.346,0.3467,0.3484,0.3515,0.3527,0.3598,0.3572,0.358,0.3623,0.3624,0.3663,0.3665,0.3664,0.3715,0.3724,0.3825,0.3705,0.3901,0.3908,0.3914,0.4051,0.407,0.4087,0,0,0,0,0,0.3457,0.3488,0.3484,0.3492,0.3543,0.36,0.3612,0.3634,0.3626,0.3663,0.3674,0.3665,0.3765,0.372,0.373,0.3834,0.3897,0.3906,0.3914,0.4043,0.4067,0.4086,0,0,0,0,0,0,0.3465,0.3493,0.349,0.3526,0.3566,0.3603,0.3647,0.3652,0.3695,0.3698,0.3694,0.37,0.3791,0.3784,0.3734,0.3916,0.3839,0.3849,0.3934,0.3956,0.3973,0.4004,0.3708,0,0,0,0,0,0.3473,0.3508,0.3532,0.3567,0.359,0.3621,0.3652,0.3667,0.3698,0.3717,0.3737,0.3773,0.3834,0.3865,0.3905,0.3993,0.3995,0.4072,0.409,0.4105,0.4138,0.4241,0.4271,0.3944,0.3944,0.3944,0,0,0.3484,0.3507,0.3525,0.3573,0.3609,0.3677,0.3639,0.37,0.3769,0.3717,0.3817,0.3833,0.3868,0.3972,0.4015,0.3978,0.4189,0.4115,0.4128,0.4153,0.4253,0.4284,0.4313,0.395,0.3949,0.3948,0,0,0.3539,0.3549,0.3602,0.3663,0.3723,0.3732,0.3753,0.3802,0.384,0.3923,0.3917,0.398,0.4061,0.4112,0.4149,0.4288,0.4276,0.4315,0.4439,0.4539,0.4567,0.4592,0.4588,0.4612,0.4328,0.4329,0.4329,0,0.3565,0.3618,0.363,0.3724,0.3748,0.3763,0.3815,0.3897,0.3956,0.4005,0.3975,0.4139,0.4142,0.4301,0.4345,0.4334,0.4355,0.4352,0.4563,0.4588,0.4611,0.4602,0.4626,0.4336,0.4336,0.4335,0.4334,0,0.3638,0.3732,0.3781,0.3877,0.3899,0.3967,0.4024,0.4092,0.4112,0.4189,0.4336,0.4357,0.445,0.448,0.4455,0.4642,0.4588,0.4569,0.4508,0.4653,0.4633,0.4655,0.4348,0.4345,0.4343,0.4341,0,0,0.3617,0.3789,0.3827,0.3889,0.3974,0.4,0.4115,0.4209,0.4317,0.4429,0.4553,0.4683,0.4707,0.4749,0.4747,0.4836,0.4973,0.4783,0.4784,0.4776,0.5144,0.4854,0.4848,0.5009,0.5015,0.502,0.5046,0,0.3682,0.3836,0.3884,0.4031,0.4092,0.4139,0.4257,0.4361,0.4428,0.458,0.4695,0.4823,0.4818,0.4847,0.4961,0.496,0.505,0.4964,0.5009,0.5008,0.4733,0.4872,0.4571,0.4551,0.5067,0.5071,0.5074,0,0.3749,0.383,0.3948,0.4099,0.4128,0.4221,0.4309,0.4431,0.4662,0.474,0.4908,0.4968,0.5133,0.5082,0.5254,0.5206,0.5208,0.5208,0.5209,0.4912,0.4763,0.4501,0.4571,0.511,0.5107,0.5105,0.5102,0,0.3667,0.3887,0.3947,0.4013,0.4186,0.4246,0.4321,0.4496,0.4602,0.4841,0.4918,0.5142,0.5228,0.5326,0.5305,0.5306,0.5437,0.5422,0.5177,0.5151,0.4888,0.4829,0.5576,0.5576,0.5576,0.5575,0.5575,0,0.3682,0.3797,0.3959,0.4016,0.4142,0.4243,0.4364,0.4523,0.4714,0.4851,0.5018,0.5109,0.5307,0.5366,0.5365,0.5306,0.5492,0.5224,0.517,0.4917,0.4863,0.5348,0.5321,0.5576,0.5576,0.5576,0.5576,0,0.3684,0.3763,0.3949,0.4118,0.4128,0.427,0.4378,0.4478,0.4687,0.4836,0.4907,0.5143,0.5222,0.5306,0.5415,0.5331,0.5305,0.5236,0.486,0.476,0.4942,0.4923,0.5005,0.4996,0.4988,0.4981,0.4976,0,0.3702,0.3777,0.4008,0.404,0.4137,0.4253,0.4282,0.4473,0.4539,0.4802,0.4862,0.5022,0.5045,0.5075,0.5038,0.4981,0.5124,0.4578,0.4531,0.496,0.49,0.4893,0.4885,0.4234,0.4222,0.4213,0.4206,0,0.374,0.388,0.3957,0.4052,0.4104,0.4175,0.4228,0.4247,0.4446,0.454,0.4642,0.4677,0.4777,0.4582,0.451,0.4443,0.4558,0.4379,0.5007,0.4383,0.4224,0.4167,0.4187,0.4125,0.4133,0.4139,0.4143,0.4146,0.3767,0.388,0.3941,0.4014,0.4064,0.4062,0.3982,0.4012,0.4045,0.4085,0.4267,0.4193,0.4266,0.4,0.3849,0.3768,0.4091,0.3892,0.3927,0.397,0.3835,0.3667,0.3433,0.3437,0.3441,0.3444,0.3447,0,0.3762,0.3792,0.383,0.3881,0.3848,0.3949,0.3878,0.3719,0.3603,0.3705,0.3703,0.3381,0.3243,0.3318,0.3097,0.3034,0.3102,0.2876,0.2971,0.3053,0.3127,0.2954,0.2317,0.2313,0.2309,0.2305,0,0,0.3719,0.3706,0.3698,0.3575,0.3604,0.3436,0.3346,0.3205,0.3157,0.2964,0.2901,0.3086,0.321,0.2714,0.2662,0.2445,0.2733,0.2354,0.3278,0.3476,0.3544,0.3742,0.357,0,0,0,0,0]},{"header":{"parameterUnit":"m.s-1","parameterCategory":2,"la1":30.2991,"la2":30.254,"lo1":-89.0895,"lo2":-89.0444,"dy":0.0017,"dx":0.0017,"nx":28,"ny":28,"refTime":"2025-07-09T09:00:00:Z","depth":"2","parameterNumber":3,"parameterNumberName":"V-component_of_CURRENTS"},"data":[0,0,0,0,0,0,0,0,0,0,0,0,0,0,0,0,0,0,0,0,0,0,0,0,0,0,0,0,0,0,0,0,0,0,0,0,0,0,0,0,0,0,0,0,0,0,0,0,0,0,0,0,0,0,0,0,0,0,-0.0016,-0.0016,0,-0.0037,-0.0037,-0.0038,-0.0063,-0.0063,-0.0064,-0.0064,-0.0083,-0.0083,-0.0083,0,0,0,0,0,0,0,0,0,0,0,0,0,-0.0033,-0.0032,-0.0016,-0.0016,-0.0016,-0.0037,-0.0037,-0.0038,-0.0063,-0.0063,-0.0064,-0.0064,-0.0083,-0.0083,-0.0083,0,0,0,0,0,0,0,0,0,0,0,0,0,-0.0038,-0.0032,-0.0016,-0.003,-0.0032,-0.0037,-0.0037,-0.0038,-0.0063,-0.0063,-0.0064,-0.0064,-0.0083,-0.0083,-0.0083,-0.0077,0,0,-0.0085,-0.0085,0,0,0,0,0,0,0,0,-0.0038,-0.0037,-0.0028,-0.0029,-0.0031,-0.0047,-0.005,-0.005,-0.0063,-0.0052,-0.0064,-0.0064,-0.007,-0.0071,-0.0076,-0.0078,-0.0079,-0.0085,-0.0085,-0.0085,-0.0085,0,0,0,0,0,0,0,-0.0037,-0.0037,-0.0025,-0.0028,-0.003,-0.0048,-0.0049,-0.0051,-0.0059,-0.0053,-0.0055,-0.0055,-0.0071,-0.0075,-0.0076,-0.0079,-0.0085,-0.0085,-0.0085,-0.0085,-0.0053,-0.0052,0,0,0,0,0,0,-0.003,-0.0036,-0.0025,-0.0026,-0.0034,-0.0047,-0.0048,-0.0042,-0.0059,-0.0062,-0.0055,-0.0056,-0.0074,-0.0076,-0.0077,-0.003,-0.0085,-0.0085,-0.0086,-0.0054,-0.0053,-0.0051,0,0,0,0,0,0,-0.003,-0.0028,-0.0024,-0.0031,-0.0032,-0.0046,-0.0039,-0.0042,-0.0042,-0.006,-0.0063,-0.005,-0.0075,-0.0077,-0.0069,-0.0033,-0.0085,-0.0086,-0.0055,-0.0054,-0.0052,0.0037,0,0,0,0,0,0,-0.003,-0.0028,-0.002,-0.003,-0.0031,-0.0012,-0.0039,-0.0042,-0.0041,-0.0043,-0.0057,-0.006,-0.0075,-0.0068,-0.0069,-0.0034,-0.0086,-0.0057,-0.0054,-0.0053,0.0033,0.0042,0.0049,0,0,0,0,0,-0.0031,-0.0007,-0.0019,-0.0018,-0.002,-0.0011,-0.0013,-0.0026,-0.004,-0.0029,-0.0042,-0.0059,-0.0056,-0.0067,-0.0069,-0.0033,-0.0058,-0.0055,-0.0053,0.0029,0.004,0.0049,0,0,0,0,0,0,-0.0007,-0.0007,-0.0021,0.0001,-0.0002,-0.0015,-0.0005,-0.0018,-0.0021,-0.0025,-0.0047,-0.005,-0.003,-0.0047,-0.0059,-0.002,-0.0059,-0.0056,0.0004,0.0014,0.0022,0.0055,-0.0086,0,0,0,0,0,0.0,0.0015,0.0008,0.0024,0.0026,0.0009,0.001,-0.0001,-0.0006,-0.0008,-0.0016,-0.0025,-0.0021,-0.0016,-0.0022,0.0002,-0.0029,0.0023,0.0031,0.0038,0.0063,0.005,0.006,-0.0043,-0.0044,-0.0044,0,0,0.0011,0.0014,0.0021,0.0029,0.0023,0.0051,0.0009,0.0017,0.0046,-0.0009,0.0027,0.0002,-0.0011,0.0014,0.0022,0.0007,0.0044,0.0041,0.0048,0.0069,0.0054,0.0064,0.0073,-0.0042,-0.0042,-0.0042,0,0,0.0043,0.0046,0.0065,0.0065,0.0064,0.0079,0.0086,0.008,0.0083,0.0104,0.0075,0.0076,0.0078,0.0083,0.0084,0.0135,0.0084,0.0125,0.0202,0.0189,0.0198,0.0205,0.0148,0.015,0.0135,0.0135,0.0135,0,0.0053,0.0089,0.0072,0.0087,0.0125,0.0101,0.0154,0.0148,0.0146,0.0167,0.0129,0.0144,0.0121,0.017,0.018,0.0158,0.012,0.0167,0.0201,0.0208,0.0214,0.0154,0.0154,0.014,0.0139,0.0139,0.0138,0,0.0099,0.0123,0.014,0.0174,0.0209,0.0248,0.0259,0.0275,0.0283,0.0283,0.0315,0.0274,0.0291,0.0274,0.0242,0.0283,0.0229,0.0207,0.0179,0.023,0.0162,0.0161,0.0146,0.0145,0.0143,0.0142,0,0,0.0151,0.0173,0.0182,0.0236,0.0272,0.0328,0.037,0.0438,0.0487,0.0454,0.0521,0.0495,0.0461,0.0459,0.0412,0.0391,0.0376,0.032,0.0317,0.0269,0.031,0.0236,0.0227,0.0355,0.0356,0.0357,0.0234,0,0.0208,0.0283,0.0289,0.041,0.0476,0.0486,0.0547,0.0587,0.0607,0.0647,0.0599,0.063,0.0536,0.0541,0.0508,0.0424,0.0383,0.0409,0.0264,0.026,0.0194,0.0229,0.0281,0.0174,0.0232,0.0232,0.0232,0,0.027,0.033,0.0441,0.0571,0.0605,0.0672,0.0818,0.0861,0.0876,0.0878,0.0874,0.0816,0.0793,0.0695,0.0576,0.0592,0.0463,0.0372,0.0365,0.0275,0.0188,0.0138,0.0169,0.023,0.023,0.023,0.023,0,0.0371,0.0465,0.0587,0.0617,0.0724,0.0798,0.0885,0.0934,0.1007,0.1023,0.1062,0.0998,0.0993,0.0835,0.0618,0.0604,0.0455,0.0417,0.0221,0.0211,0.022,0.021,0.0324,0.0324,0.0325,0.0325,0.0325,0,0.0463,0.056,0.0639,0.07,0.0885,0.0918,0.1085,0.1132,0.1194,0.1301,0.1194,0.1237,0.1029,0.0899,0.0677,0.0443,0.0497,0.0245,0.0191,0.0246,0.0241,0.0269,0.0265,0.032,0.0321,0.0322,0.0323,0,0.0546,0.0573,0.0731,0.0868,0.0923,0.1066,0.1237,0.1332,0.137,0.1498,0.151,0.1441,0.1286,0.102,0.0768,0.0546,0.0306,0.0195,0.0244,0.0199,0.0051,0.0052,-0.0004,-0.0007,-0.001,-0.0012,-0.0014,0,0.0595,0.0666,0.0861,0.0966,0.1036,0.1214,0.1319,0.1418,0.1524,0.1619,0.1693,0.1583,0.1498,0.1077,0.0711,0.0316,0.0266,0.0068,0.0063,0.0072,0.0025,0.0031,0.0036,0.0088,0.0088,0.0087,0.0086,0,0.0711,0.0767,0.0898,0.1091,0.1241,0.1417,0.1584,0.1694,0.1799,0.1878,0.1939,0.1867,0.1513,0.1141,0.0611,0.0351,0.0138,0.0038,0.007,0.016,0.0149,0.0105,0.011,0.0079,0.008,0.0081,0.0081,0.0081,0.0808,0.0918,0.1057,0.1251,0.1414,0.1594,0.1728,0.1875,0.2032,0.2133,0.2086,0.197,0.159,0.0922,0.0501,0.0083,0.0108,-0.0072,-0.0064,-0.0057,-0.0027,-0.0043,-0.0145,-0.0146,-0.0147,-0.0147,-0.0147,0,0.0935,0.1031,0.1201,0.1419,0.1575,0.165,0.1872,0.196,0.212,0.2193,0.2191,0.1784,0.1387,0.0954,0.0347,-0.0049,-0.0041,-0.0184,-0.0077,-0.0067,-0.006,-0.0026,-0.0147,-0.0148,-0.0149,-0.015,0,0,0.1006,0.1162,0.1223,0.1485,0.1629,0.1811,0.1927,0.206,0.2143,0.2156,0.2092,0.1983,0.1484,0.1029,0.0542,0.02,0.0147,0.0126,0.0168,0.0362,0.0374,0.0048,0.0114,0,0,0,0,0]}],[{"header":{"parameterUnit":"m.s-1","parameterCategory":2,"la1":30.2991,"la2":30.254,"lo1":-89.0895,"lo2":-89.0444,"dy":0.0017,"dx":0.0017,"nx":28,"ny":28,"refTime":"2025-07-09T09:00:00:Z","depth":"4","parameterNumber":2,"parameterNumberName":"U-component_of_CURRENTS"},"data":[0,0,0,0,0,0,0,0,0,0,0,0,0,0,0,0,0,0,0,0,0,0,0,0,0,0,0,0,0,0,0,0,0,0,0,0,0,0,0,0,0,0,0,0,0,0,0,0,0,0,0,0,0,0,0,0,0,0,0.1814,0.1815,0,0.1836,0.1836,0.1836,0.1901,0.1903,0.1904,0.1906,0.1982,0.1982,0.1983,0,0,0,0,0,0,0,0,0,0,0,0,0,0.1789,0.1789,0.1814,0.1815,0.1816,0.1836,0.1836,0.1836,0.19,0.1903,0.1905,0.1907,0.1982,0.1982,0.1983,0,0,0,0,0,0,0,0,0,0,0,0,0,0.1799,0.1789,0.1814,0.1854,0.1858,0.1836,0.1836,0.1836,0.19,0.1903,0.1906,0.1908,0.1982,0.1982,0.1983,0.1928,0,0,0.1984,0.1984,0,0,0,0,0,0,0,0,0.1798,0.1799,0.1848,0.1852,0.1856,0.1873,0.1855,0.1871,0.1899,0.1878,0.1906,0.191,0.1952,0.1955,0.1944,0.1931,0.1934,0.1984,0.1984,0.1984,0.1984,0,0,0,0,0,0,0,0.1798,0.1799,0.1817,0.1848,0.1854,0.1858,0.1862,0.1857,0.1896,0.1881,0.1887,0.1896,0.1955,0.1944,0.1947,0.1936,0.1984,0.1984,0.1984,0.1985,0.2138,0.2141,0,0,0,0,0,0,0.1804,0.1798,0.1817,0.1819,0.184,0.1857,0.1861,0.186,0.1895,0.1904,0.1894,0.19,0.1942,0.1946,0.195,0.2069,0.1984,0.1985,0.1985,0.2134,0.2138,0.2143,0,0,0,0,0,0,0.1803,0.1805,0.1816,0.1814,0.1816,0.1855,0.1853,0.186,0.1896,0.1906,0.1915,0.193,0.1944,0.195,0.2016,0.2066,0.1985,0.1985,0.2129,0.2135,0.214,0.2191,0,0,0,0,0,0,0.1802,0.1804,0.1822,0.1814,0.1817,0.1835,0.1851,0.1858,0.1897,0.1905,0.1938,0.1946,0.1947,0.2016,0.2017,0.2065,0.1985,0.2124,0.2132,0.2139,0.2184,0.2198,0.2209,0,0,0,0,0,0.1801,0.1802,0.1822,0.1826,0.1834,0.1836,0.1838,0.1871,0.1897,0.1913,0.1964,0.1947,0.2064,0.2018,0.2018,0.2068,0.2121,0.213,0.2138,0.2179,0.2195,0.2209,0,0,0,0,0,0,0.1798,0.1808,0.1831,0.1837,0.1856,0.185,0.1866,0.1888,0.1933,0.196,0.1972,0.1983,0.2072,0.2066,0.2016,0.2144,0.2098,0.2107,0.2129,0.2144,0.2157,0.2172,0.1986,0,0,0,0,0,0.1805,0.1818,0.1827,0.1842,0.1846,0.1863,0.1876,0.1902,0.1932,0.1955,0.1988,0.204,0.2095,0.2118,0.216,0.2197,0.2213,0.2244,0.2256,0.2266,0.2286,0.2381,0.2403,0.2171,0.2171,0.2171,0,0,0.1804,0.1821,0.1826,0.1845,0.1855,0.1857,0.1877,0.1906,0.1951,0.1954,0.2036,0.2082,0.2122,0.2195,0.2232,0.2198,0.2335,0.2277,0.2284,0.2299,0.2392,0.2414,0.2434,0.2177,0.2176,0.2175,0,0,0.178,0.1826,0.1809,0.1824,0.1858,0.1885,0.1903,0.193,0.1992,0.2063,0.2104,0.2189,0.2242,0.2293,0.2321,0.2424,0.2407,0.2443,0.2497,0.2589,0.2608,0.2625,0.2634,0.2652,0.2436,0.2436,0.2436,0,0.1788,0.1773,0.1809,0.1792,0.1836,0.1899,0.191,0.1958,0.2023,0.2097,0.2113,0.2268,0.2296,0.2398,0.245,0.2449,0.2475,0.2423,0.2602,0.2619,0.2636,0.2641,0.266,0.2439,0.2439,0.2438,0.2438,0,0.1726,0.1736,0.1732,0.1754,0.1807,0.1834,0.1916,0.1999,0.21,0.2158,0.2317,0.2373,0.2471,0.2496,0.2503,0.2639,0.2607,0.261,0.2551,0.2661,0.2661,0.2679,0.2444,0.2443,0.2442,0.2441,0,0,0.1711,0.1691,0.1705,0.173,0.181,0.1856,0.1963,0.2089,0.2197,0.2288,0.2418,0.2534,0.2589,0.2629,0.2656,0.2729,0.2851,0.2723,0.2727,0.2708,0.3009,0.2786,0.2783,0.289,0.2894,0.2898,0.2945,0,0.1673,0.1633,0.1677,0.1729,0.1728,0.187,0.1971,0.2111,0.2263,0.2397,0.2504,0.2638,0.2631,0.2709,0.2779,0.2873,0.2911,0.2835,0.2927,0.2929,0.2698,0.2802,0.2913,0.2958,0.2962,0.2965,0.2967,0,0.1615,0.161,0.1609,0.1739,0.1768,0.185,0.2111,0.2208,0.2404,0.2523,0.2662,0.2743,0.289,0.2861,0.3037,0.2996,0.3008,0.3039,0.3041,0.2833,0.2742,0.284,0.3,0.2998,0.2995,0.2993,0.2991,0,0.1578,0.1613,0.1636,0.1659,0.177,0.1898,0.2042,0.226,0.2394,0.2625,0.2739,0.2897,0.3007,0.3093,0.3155,0.3135,0.3299,0.3273,0.3053,0.3034,0.3193,0.3175,0.3359,0.3359,0.3359,0.3359,0.3359,0,0.1518,0.1557,0.1632,0.1629,0.1785,0.19,0.2119,0.2286,0.2493,0.2628,0.2806,0.2911,0.3086,0.3179,0.3204,0.3181,0.3342,0.3079,0.3054,0.3207,0.3191,0.3202,0.3184,0.336,0.336,0.336,0.3359,0,0.1453,0.1457,0.15,0.1644,0.1737,0.1866,0.2168,0.2276,0.2516,0.2698,0.2777,0.2981,0.3118,0.321,0.334,0.3227,0.3244,0.3167,0.3292,0.3269,0.2894,0.2879,0.2956,0.2949,0.2943,0.2938,0.2934,0,0.1384,0.1372,0.1526,0.1586,0.1674,0.1886,0.2001,0.2266,0.2384,0.2701,0.2742,0.2951,0.3054,0.3055,0.316,0.3172,0.3115,0.3068,0.301,0.2897,0.2865,0.2858,0.2851,0.2925,0.2923,0.2922,0.292,0,0.1304,0.1372,0.1437,0.1533,0.166,0.1781,0.1996,0.2067,0.2324,0.2556,0.2681,0.2751,0.2854,0.2925,0.2938,0.2936,0.3099,0.3006,0.3017,0.2962,0.286,0.2832,0.2832,0.2899,0.2902,0.2904,0.2906,0,0.1305,0.1342,0.1416,0.1509,0.1618,0.1641,0.1776,0.1916,0.2058,0.2407,0.2424,0.2638,0.2825,0.2797,0.2819,0.2807,0.2761,0.265,0.268,0.2703,0.2597,0.2428,0.2331,0,0,0,0,0,0.1288,0.1315,0.1387,0.1441,0.1515,0.1584,0.1737,0.1844,0.2092,0.2119,0.2288,0.2382,0.2452,0.2543,0.2479,0.2664,0.2738,0.257,0.2617,0.2785,0.2809,0.2705,0,0,0,0,0,0,0.1271,0.1359,0.1359,0.1342,0.1369,0.1427,0.1504,0.1655,0.1707,0.1978,0.2035,0.224,0.234,0.2496,0.2448,0.2471,0.2443,0.2706,0.2698,0.2772,0.2793,0.2813,0.2714,0,0,0,0,0]},{"header":{"parameterUnit":"m.s-1","parameterCategory":2,"la1":30.2991,"la2":30.254,"lo1":-89.0895,"lo2":-89.0444,"dy":0.0017,"dx":0.0017,"nx":28,"ny":28,"refTime":"2025-07-09T09:00:00:Z","depth":"4","parameterNumber":3,"parameterNumberName":"V-component_of_CURRENTS"},"data":[0,0,0,0,0,0,0,0,0,0,0,0,0,0,0,0,0,0,0,0,0,0,0,0,0,0,0,0,0,0,0,0,0,0,0,0,0,0,0,0,0,0,0,0,0,0,0,0,0,0,0,0,0,0,0,0,0,0,0.0029,0.0029,0,0.0025,0.0025,0.0025,0.0006,0.0006,0.0005,0.0004,-0.0031,-0.0031,-0.0032,0,0,0,0,0,0,0,0,0,0,0,0,0,-0.0004,-0.0003,0.0029,0.0029,0.0029,0.0025,0.0025,0.0025,0.0006,0.0006,0.0005,0.0004,-0.0031,-0.0031,-0.0032,0,0,0,0,0,0,0,0,0,0,0,0,0,0.0004,-0.0002,0.0029,0.0018,0.0017,0.0025,0.0025,0.0025,0.0006,0.0006,0.0005,0.0004,-0.003,-0.0031,-0.0032,-0.0019,0,0,-0.0034,-0.0034,0,0,0,0,0,0,0,0,0.0004,0.0006,0.002,0.0019,0.0018,0.0014,0.0,0.0008,0.0007,0.0012,0.0004,0.0004,-0.0019,-0.002,-0.0017,-0.0021,-0.0022,-0.0034,-0.0034,-0.0034,-0.0035,0,0,0,0,0,0,0,0.0003,0.0006,0.0029,0.002,0.0018,0.0005,0.0005,0.0002,0.0001,0.0011,0.001,0.0007,-0.002,-0.0017,-0.0018,-0.0023,-0.0034,-0.0034,-0.0035,-0.0035,-0.0051,-0.0051,0,0,0,0,0,0,0.0004,0.0006,0.0029,0.0028,0.0007,0.0006,0.0007,0.0017,0.0002,-0.0001,0.0008,0.0006,-0.0015,-0.0018,-0.002,-0.0017,-0.0034,-0.0035,-0.0035,-0.0051,-0.0051,-0.0051,0,0,0,0,0,0,0.0004,0.0007,0.0029,0.0015,0.0017,0.0007,0.0019,0.0017,0.002,-0.0,-0.0004,0.0012,-0.0016,-0.0019,-0.0027,-0.0019,-0.0035,-0.0036,-0.0051,-0.0051,-0.0051,-0.0005,0,0,0,0,0,0,0.0003,0.0007,0.0018,0.0016,0.0017,0.0039,0.002,0.0018,0.0019,0.0017,0.0002,-0.0002,-0.0017,-0.0026,-0.0028,-0.002,-0.0036,-0.0051,-0.0051,-0.0051,-0.0007,-0.0004,-0.0001,0,0,0,0,0,0.0002,0.0025,0.0019,0.0021,0.0032,0.0039,0.0039,0.003,0.002,0.0028,0.001,-0.0002,-0.0028,-0.0026,-0.0029,-0.002,-0.0051,-0.0051,-0.0051,-0.0008,-0.0005,-0.0001,0,0,0,0,0,0,0.0019,0.0025,0.0018,0.0043,0.004,0.0035,0.0045,0.0035,0.0029,0.0024,0.0003,-0.0002,-0.0008,-0.0022,-0.0019,-0.0028,-0.0043,-0.0044,-0.001,-0.0007,-0.0004,0.0006,-0.0037,0,0,0,0,0,0.0027,0.0044,0.0042,0.0059,0.0062,0.0053,0.0055,0.0047,0.0039,0.0036,0.0025,0.0007,-0.0009,-0.0014,-0.0027,-0.0025,-0.0056,-0.0024,-0.0021,-0.0019,-0.0013,-0.0055,-0.0056,-0.0051,-0.0051,-0.0051,0,0,0.0037,0.0043,0.0051,0.0063,0.0063,0.0084,0.0053,0.006,0.0069,0.0033,0.0046,0.0019,-0.0007,-0.001,-0.0014,-0.002,-0.0039,-0.0019,-0.0016,-0.0012,-0.0055,-0.0056,-0.0056,-0.0051,-0.0051,-0.0051,0,0,0.0072,0.0072,0.0102,0.0112,0.0114,0.0104,0.0107,0.0105,0.0094,0.0097,0.0067,0.0044,0.0036,0.0013,-0.0,0.001,-0.0025,0.0006,0.0033,-0.0007,-0.0008,-0.0009,-0.0059,-0.0065,0.001,0.001,0.001,0,0.008,0.0127,0.0109,0.0147,0.0164,0.0118,0.0157,0.014,0.0132,0.0125,0.0106,0.0069,0.0046,0.0029,0.0029,0.0018,-0.0015,0.0026,-0.0003,-0.0005,-0.0006,-0.0058,-0.0065,0.0012,0.0012,0.0011,0.0011,0,0.0145,0.0185,0.0205,0.0236,0.0245,0.0269,0.0247,0.0234,0.0209,0.0194,0.0166,0.012,0.01,0.0081,0.006,0.0038,0.0015,0.0004,-0.0008,-0.0004,-0.0059,-0.0067,0.0015,0.0014,0.0014,0.0013,0,0,0.0162,0.0235,0.0246,0.0286,0.0299,0.0314,0.0311,0.0303,0.0305,0.026,0.0256,0.0205,0.017,0.0152,0.0109,0.0065,0.0019,0.0036,0.0033,-0.0009,-0.0079,-0.0067,-0.0075,0.0005,0.0004,0.0004,-0.0116,0,0.0219,0.0314,0.033,0.0409,0.0457,0.0425,0.0429,0.0407,0.0376,0.0354,0.0268,0.0258,0.02,0.0191,0.0133,0.0059,0.0002,0.0052,-0.0082,-0.0086,-0.0071,-0.0082,0.0001,-0.0122,-0.0124,-0.0126,-0.0127,0,0.0279,0.0342,0.0445,0.0505,0.052,0.0551,0.0549,0.0552,0.0492,0.0466,0.0415,0.0357,0.0285,0.0232,0.0088,0.0125,0.0028,-0.0048,-0.0054,-0.0061,-0.0088,-0.0128,-0.0142,-0.014,-0.0139,-0.0138,-0.0137,0,0.031,0.0413,0.0501,0.0533,0.0592,0.0615,0.0619,0.0591,0.0602,0.0548,0.0546,0.0439,0.0392,0.0261,0.0102,0.0102,-0.0073,-0.0089,-0.0183,-0.0184,-0.018,-0.0178,-0.0205,-0.0205,-0.0205,-0.0205,-0.0204,0,0.0366,0.0436,0.0531,0.059,0.067,0.0681,0.074,0.0715,0.0701,0.072,0.062,0.0592,0.0399,0.0272,0.0121,-0.0051,-0.0058,-0.0182,-0.0211,-0.016,-0.0154,-0.0187,-0.0183,-0.0209,-0.0208,-0.0207,-0.0206,0,0.0389,0.0458,0.0568,0.0663,0.0701,0.0754,0.0829,0.085,0.0838,0.0854,0.0844,0.0709,0.0556,0.0349,0.0123,-0.0008,-0.0181,-0.025,-0.0188,-0.0211,-0.0276,-0.0268,-0.0353,-0.0353,-0.0354,-0.0354,-0.0354,0,0.0414,0.0482,0.0628,0.0701,0.0759,0.0848,0.0894,0.0913,0.0946,0.0923,0.092,0.0785,0.0672,0.0361,0.0139,-0.015,-0.0199,-0.0301,-0.0287,-0.0269,-0.029,-0.0281,-0.0274,-0.0355,-0.0355,-0.0355,-0.0355,0,0.0463,0.0515,0.0602,0.0749,0.0842,0.0937,0.1011,0.1049,0.1059,0.1061,0.0993,0.0826,0.0636,0.0378,0.0146,-0.0065,-0.0233,-0.0306,-0.0307,-0.0295,-0.0273,-0.0291,-0.0283,-0.0357,-0.0356,-0.0356,-0.0356,0,0.0491,0.0545,0.0661,0.0783,0.0892,0.0977,0.1028,0.1067,0.1099,0.1081,0.1053,0.0852,0.073,0.042,0.021,0.0008,-0.0046,-0.0123,-0.0134,-0.0136,-0.0036,0.0026,0.0009,0,0,0,0,0,0.0523,0.0578,0.0684,0.081,0.0906,0.0979,0.1076,0.1113,0.1144,0.1112,0.1092,0.0922,0.0614,0.0469,0.0273,0.0185,-0.0095,-0.0055,-0.0193,-0.0364,-0.0363,-0.0282,0,0,0,0,0,0,0.0549,0.0639,0.0676,0.0796,0.0884,0.099,0.1058,0.109,0.108,0.1085,0.0929,0.0865,0.0566,0.0731,0.0266,0.0204,0.0086,-0.0193,-0.0197,-0.0365,-0.0364,-0.0362,-0.0279,0,0,0,0,0]}]]